カタログに戻る

GONETS D1 2

運用中通信PO
NORAD 23788·PAYLOAD·🇷🇺 Russia

打ち上げ Feb 19, 1996 から Plesetsk Cosmodrome

Loading…

次のパス (今後24時間)

TLE

最新Source: Space-Track

元期: Sep 14, 2026, 08:40 UTC

1 23788U 96009B   26257.36160393 -.00000005  00000-0 -86586-4 0  9999
2 23788  82.5653 247.4255 0006069 219.4075 140.6576 12.63218382409353

AllMySatでGONETS D1 2をリアルタイム追跡

Download on the App Store